Time,TemperatureF,DewpointF,PressureIn,WindDirection,WindDirectionDegrees,WindSpeedMPH,WindSpeedGustMPH,Humidity,HourlyPrecipIn,Conditions,Clouds,dailyrainin,SoftwareType,DateUTC
2013-07-05 00:01:00,79.2,73.2,30.17,SW,233,0.0,2.0,82,0.00,,,0.00,meteohub,2013-07-05 04:01:00,
2013-07-05 00:02:00,79.2,73.6,30.17,SW,231,0.0,2.0,83,0.00,,,0.00,meteohub,2013-07-05 04:02:00,
2013-07-05 00:07:00,79.3,73.4,30.17,WSW,248,0.0,2.0,82,0.00,,,0.00,meteohub,2013-07-05 04:07:00,
2013-07-05 00:12:00,79.3,73.4,30.17,WSW,243,1.0,6.0,82,0.00,,,0.00,meteohub,2013-07-05 04:12:00,
2013-07-05 00:17:00,79.3,73.0,30.17,West,264,1.0,6.0,81,0.00,,,0.00,meteohub,2013-07-05 04:17:00,
2013-07-05 00:22:00,79.3,73.4,30.17,SW,226,0.0,3.0,82,0.00,,,0.00,meteohub,2013-07-05 04:22:00,
2013-07-05 00:27:00,79.3,73.4,30.17,West,277,0.0,4.0,82,0.00,,,0.00,meteohub,2013-07-05 04:27:00,
2013-07-05 00:32:00,79.3,73.4,30.17,SW,229,0.0,4.0,82,0.00,,,0.00,meteohub,2013-07-05 04:32:00,
2013-07-05 00:37:00,79.2,73.2,30.17,SW,231,0.0,4.0,82,0.00,,,0.00,meteohub,2013-07-05 04:37:00,
2013-07-05 00:42:00,79.0,73.0,30.17,SW,228,0.0,2.0,82,0.00,,,0.00,meteohub,2013-07-05 04:42:00,
2013-07-05 00:47:00,78.8,73.2,30.17,SSW,208,0.0,1.0,83,0.00,,,0.00,meteohub,2013-07-05 04:47:00,
2013-07-05 00:52:00,78.6,73.0,30.17,SSW,210,0.0,1.0,83,0.00,,,0.00,meteohub,2013-07-05 04:52:00,
2013-07-05 00:57:00,78.4,73.2,30.17,SSW,208,0.0,1.0,84,0.00,,,0.00,meteohub,2013-07-05 04:57:00,
2013-07-05 01:02:00,78.3,73.0,30.17,SSW,213,0.0,1.0,84,0.00,,,0.00,meteohub,2013-07-05 05:02:00,
2013-07-05 01:07:00,78.3,73.0,30.17,SSW,213,0.0,1.0,84,0.00,,,0.00,meteohub,2013-07-05 05:07:00,
2013-07-05 01:12:00,78.1,72.9,30.17,SSW,212,0.0,1.0,84,0.00,,,0.00,meteohub,2013-07-05 05:12:00,
2013-07-05 01:17:00,78.1,73.2,30.17,SSW,212,0.0,0.0,85,0.00,,,0.00,meteohub,2013-07-05 05:17:00,
2013-07-05 01:22:00,77.9,73.0,30.17,SW,214,0.0,0.0,85,0.00,,,0.00,meteohub,2013-07-05 05:22:00,
2013-07-05 01:27:00,77.7,72.9,30.17,SW,214,0.0,0.0,85,0.00,,,0.00,meteohub,2013-07-05 05:27:00,
2013-07-05 01:32:00,77.7,72.9,30.17,SW,214,0.0,0.0,85,0.00,,,0.00,meteohub,2013-07-05 05:32:00,
2013-07-05 01:37:00,77.5,73.0,30.17,SW,231,0.0,0.0,86,0.00,,,0.00,meteohub,2013-07-05 05:37:00,
2013-07-05 01:42:00,77.5,73.0,30.17,SW,231,0.0,0.0,86,0.00,,,0.00,meteohub,2013-07-05 05:42:00,
2013-07-05 01:47:00,77.5,73.0,30.17,SW,229,0.0,0.0,86,0.00,,,0.00,meteohub,2013-07-05 05:47:00,
2013-07-05 01:52:00,77.5,72.7,30.17,SE,143,1.0,3.0,85,0.00,,,0.00,meteohub,2013-07-05 05:52:00,
2013-07-05 01:57:00,77.5,72.7,30.17,SW,219,0.0,3.0,85,0.00,,,0.00,meteohub,2013-07-05 05:57:00,
2013-07-05 02:02:00,77.5,73.0,30.17,SW,219,0.0,3.0,86,0.00,,,0.00,meteohub,2013-07-05 06:02:00,
2013-07-05 02:07:00,77.4,72.9,30.17,West,263,0.0,1.0,86,0.00,,,0.00,meteohub,2013-07-05 06:07:00,
2013-07-05 02:12:00,77.4,72.9,30.17,West,264,0.0,1.0,86,0.00,,,0.00,meteohub,2013-07-05 06:12:00,
2013-07-05 02:17:00,77.4,72.9,30.17,WSW,250,0.0,1.0,86,0.00,,,0.00,meteohub,2013-07-05 06:17:00,
2013-07-05 02:22:00,77.4,72.9,30.17,WSW,249,0.0,2.0,86,0.00,,,0.00,meteohub,2013-07-05 06:22:00,
2013-07-05 02:27:00,77.4,73.2,30.17,WSW,251,0.0,2.0,87,0.00,,,0.00,meteohub,2013-07-05 06:27:00,
2013-07-05 02:32:00,77.2,73.0,30.17,WSW,252,0.0,2.0,87,0.00,,,0.00,meteohub,2013-07-05 06:32:00,
2013-07-05 02:37:00,77.2,73.0,30.17,SW,214,0.0,2.0,87,0.00,,,0.00,meteohub,2013-07-05 06:37:00,
2013-07-05 02:42:00,77.4,73.2,30.17,SW,231,1.0,3.0,87,0.00,,,0.00,meteohub,2013-07-05 06:42:00,
2013-07-05 02:47:00,77.2,73.0,30.17,SW,229,0.0,5.0,87,0.00,,,0.00,meteohub,2013-07-05 06:47:00,
2013-07-05 02:52:00,77.2,73.0,30.17,South,189,0.0,5.0,87,0.00,,,0.00,meteohub,2013-07-05 06:52:00,
2013-07-05 02:57:00,77.0,73.2,30.17,West,259,1.0,5.0,88,0.00,,,0.00,meteohub,2013-07-05 06:57:00,
2013-07-05 03:02:00,77.0,73.2,30.17,SW,228,0.0,4.0,88,0.00,,,0.00,meteohub,2013-07-05 07:02:00,
2013-07-05 03:07:00,76.8,73.0,30.17,SW,228,0.0,2.0,88,0.00,,,0.00,meteohub,2013-07-05 07:07:00,
2013-07-05 03:12:00,76.8,73.0,30.17,WSW,242,0.0,2.0,88,0.00,,,0.00,meteohub,2013-07-05 07:12:00,
2013-07-05 03:17:00,76.6,73.2,30.17,WSW,240,0.0,2.0,89,0.00,,,0.00,meteohub,2013-07-05 07:17:00,
2013-07-05 03:22:00,76.6,73.2,30.17,WSW,240,0.0,2.0,89,0.00,,,0.00,meteohub,2013-07-05 07:22:00,
2013-07-05 03:27:00,76.6,73.2,30.17,WSW,241,0.0,2.0,89,0.00,,,0.00,meteohub,2013-07-05 07:27:00,
2013-07-05 03:33:00,76.6,73.2,30.17,WSW,240,0.0,2.0,89,0.00,,,0.00,meteohub,2013-07-05 07:33:00,
2013-07-05 03:38:00,76.5,73.0,30.17,WSW,238,0.0,0.0,89,0.00,,,0.00,meteohub,2013-07-05 07:38:00,
2013-07-05 03:43:00,76.5,73.2,30.17,WSW,238,0.0,1.0,90,0.00,,,0.00,meteohub,2013-07-05 07:43:00,
2013-07-05 03:48:00,76.3,73.0,30.17,South,190,0.0,1.0,90,0.00,,,0.00,meteohub,2013-07-05 07:48:00,
2013-07-05 03:53:00,76.3,73.0,30.17,SSW,204,0.0,0.0,90,0.00,,,0.00,meteohub,2013-07-05 07:53:00,
2013-07-05 03:58:00,76.3,73.0,30.17,WSW,250,1.0,1.0,90,0.00,,,0.00,meteohub,2013-07-05 07:58:00,
2013-07-05 04:03:00,76.3,73.0,30.17,South,176,0.0,2.0,90,0.00,,,0.00,meteohub,2013-07-05 08:03:00,
2013-07-05 04:08:00,76.3,73.0,30.17,WSW,237,0.0,2.0,90,0.00,,,0.00,meteohub,2013-07-05 08:08:00,
2013-07-05 04:13:00,76.3,73.0,30.17,ENE,66,0.0,3.0,90,0.00,,,0.00,meteohub,2013-07-05 08:13:00,
2013-07-05 04:18:00,76.3,73.0,30.17,ENE,67,0.0,3.0,90,0.00,,,0.00,meteohub,2013-07-05 08:18:00,
2013-07-05 04:23:00,76.1,72.9,30.17,WSW,253,1.0,3.0,90,0.00,,,0.00,meteohub,2013-07-05 08:23:00,
2013-07-05 04:28:00,76.1,72.9,30.17,SW,215,0.0,3.0,90,0.00,,,0.00,meteohub,2013-07-05 08:28:00,
2013-07-05 04:33:00,75.9,72.9,30.17,SW,231,0.0,3.0,90,0.00,,,0.00,meteohub,2013-07-05 08:33:00,
2013-07-05 04:38:00,75.9,73.0,30.17,SW,231,0.0,3.0,91,0.00,,,0.00,meteohub,2013-07-05 08:38:00,
2013-07-05 04:43:00,75.7,72.9,30.17,SW,231,0.0,1.0,91,0.00,,,0.00,meteohub,2013-07-05 08:43:00,
2013-07-05 04:48:00,75.7,72.9,30.17,SW,231,0.0,1.0,91,0.00,,,0.00,meteohub,2013-07-05 08:48:00,
2013-07-05 04:53:00,75.6,72.7,30.17,SW,231,0.0,1.0,91,0.00,,,0.00,meteohub,2013-07-05 08:53:00,
2013-07-05 04:58:00,75.4,72.5,30.17,SW,231,0.0,0.0,91,0.00,,,0.00,meteohub,2013-07-05 08:58:00,
2013-07-05 05:03:00,75.4,72.5,30.17,SW,231,0.0,0.0,91,0.00,,,0.00,meteohub,2013-07-05 09:03:00,
2013-07-05 05:08:00,75.2,72.7,30.17,SW,231,0.0,0.0,92,0.00,,,0.00,meteohub,2013-07-05 09:08:00,
2013-07-05 05:13:00,75.0,72.5,30.17,SW,231,0.0,0.0,92,0.00,,,0.00,meteohub,2013-07-05 09:13:00,
2013-07-05 05:18:00,75.0,72.5,30.17,SW,231,0.0,0.0,92,0.00,,,0.00,meteohub,2013-07-05 09:18:00,
2013-07-05 05:23:00,74.8,72.3,30.17,SW,231,0.0,0.0,92,0.00,,,0.00,meteohub,2013-07-05 09:23:00,
2013-07-05 05:29:00,74.8,72.3,30.17,SW,231,0.0,0.0,92,0.00,,,0.00,meteohub,2013-07-05 09:29:00,
2013-07-05 05:34:00,74.7,72.5,30.17,SW,222,0.0,0.0,93,0.00,,,0.00,meteohub,2013-07-05 09:34:00,
2013-07-05 05:39:00,74.7,72.5,30.18,WSW,242,0.0,0.0,93,0.00,,,0.00,meteohub,2013-07-05 09:39:00,
2013-07-05 05:44:00,74.7,72.5,30.18,WSW,242,0.0,1.0,93,0.00,,,0.00,meteohub,2013-07-05 09:44:00,
2013-07-05 05:49:00,74.5,72.3,30.18,WSW,242,0.0,1.0,93,0.00,,,0.00,meteohub,2013-07-05 09:49:00,
2013-07-05 05:55:00,74.5,72.7,30.18,WSW,242,0.0,1.0,94,0.00,,,0.00,meteohub,2013-07-05 09:55:00,
2013-07-05 06:00:00,74.5,72.7,30.18,WSW,243,0.0,0.0,94,0.00,,,0.00,meteohub,2013-07-05 10:00:00,
2013-07-05 06:05:00,74.5,72.7,30.18,WSW,242,0.0,0.0,94,0.00,,,0.00,meteohub,2013-07-05 10:05:00,
2013-07-05 06:10:00,74.3,72.5,30.18,WSW,242,0.0,0.0,94,0.00,,,0.00,meteohub,2013-07-05 10:10:00,
2013-07-05 06:15:00,74.5,72.7,30.18,WSW,245,0.0,0.0,94,0.00,,,0.00,meteohub,2013-07-05 10:15:00,
2013-07-05 06:20:00,74.5,72.7,30.18,WSW,244,0.0,1.0,94,0.00,,,0.00,meteohub,2013-07-05 10:20:00,
2013-07-05 06:25:00,74.7,72.9,30.18,WSW,245,0.0,1.0,94,0.00,,,0.00,meteohub,2013-07-05 10:25:00,
2013-07-05 06:30:00,74.7,73.2,30.18,WSW,245,0.0,1.0,95,0.00,,,0.00,meteohub,2013-07-05 10:30:00,
2013-07-05 06:35:00,74.8,73.2,30.18,WSW,245,0.0,1.0,95,0.00,,,0.00,meteohub,2013-07-05 10:35:00,
2013-07-05 06:40:00,75.0,73.4,30.18,WSW,245,0.0,1.0,95,0.00,,,0.00,meteohub,2013-07-05 10:40:00,
2013-07-05 06:45:00,75.4,73.8,30.18,WSW,249,0.0,1.0,95,0.00,,,0.00,meteohub,2013-07-05 10:45:00,
2013-07-05 06:51:00,75.9,74.1,30.19,WSW,249,0.0,1.0,94,0.00,,,0.00,meteohub,2013-07-05 10:51:00,
2013-07-05 06:56:00,76.3,74.1,30.18,WSW,249,0.0,0.0,93,0.00,,,0.00,meteohub,2013-07-05 10:56:00,
2013-07-05 07:01:00,76.5,73.9,30.19,WSW,240,1.0,2.0,92,0.00,,,0.00,meteohub,2013-07-05 11:01:00,
2013-07-05 07:06:00,76.5,73.9,30.19,WSW,239,0.0,2.0,92,0.00,,,0.00,meteohub,2013-07-05 11:06:00,
2013-07-05 07:11:00,76.6,73.8,30.18,SW,222,0.0,2.0,91,0.00,,,0.00,meteohub,2013-07-05 11:11:00,
2013-07-05 07:16:00,76.8,73.9,30.18,ESE,106,0.0,2.0,91,0.00,,,0.00,meteohub,2013-07-05 11:16:00,
2013-07-05 07:21:00,77.2,74.3,30.18,SW,224,0.0,3.0,91,0.00,,,0.00,meteohub,2013-07-05 11:21:00,
2013-07-05 07:26:00,77.4,74.1,30.18,SW,224,0.0,3.0,90,0.00,,,0.00,meteohub,2013-07-05 11:26:00,
2013-07-05 07:31:00,77.5,74.3,30.18,SW,231,0.0,1.0,90,0.00,,,0.00,meteohub,2013-07-05 11:31:00,
2013-07-05 07:36:00,77.5,74.3,30.18,SW,231,0.0,2.0,90,0.00,,,0.00,meteohub,2013-07-05 11:36:00,
2013-07-05 07:41:00,77.7,74.5,30.18,SW,231,0.0,2.0,90,0.00,,,0.00,meteohub,2013-07-05 11:41:00,
2013-07-05 07:46:00,78.1,74.5,30.19,WSW,249,0.0,3.0,89,0.00,,,0.00,meteohub,2013-07-05 11:46:00,
2013-07-05 07:52:00,78.3,74.7,30.18,WSW,250,0.0,3.0,89,0.00,,,0.00,meteohub,2013-07-05 11:52:00,
2013-07-05 07:57:00,78.4,74.7,30.18,South,170,0.0,3.0,88,0.00,,,0.00,meteohub,2013-07-05 11:57:00,
2013-07-05 08:02:00,78.4,74.7,30.19,WSW,244,0.0,2.0,88,0.00,,,0.00,meteohub,2013-07-05 12:02:00,
2013-07-05 08:07:00,78.4,74.7,30.19,WSW,245,0.0,1.0,88,0.00,,,0.00,meteohub,2013-07-05 12:07:00,
2013-07-05 08:12:00,78.6,74.8,30.19,SW,214,0.0,1.0,88,0.00,,,0.00,meteohub,2013-07-05 12:12:00,
2013-07-05 08:17:00,79.0,75.2,30.18,SE,135,0.0,0.0,88,0.00,,,0.00,meteohub,2013-07-05 12:17:00,
2013-07-05 08:22:00,79.2,75.0,30.19,West,264,0.0,0.0,87,0.00,,,0.00,meteohub,2013-07-05 12:22:00,
2013-07-05 08:27:00,79.3,74.8,30.18,West,264,0.0,0.0,86,0.00,,,0.00,meteohub,2013-07-05 12:27:00,
2013-07-05 08:33:00,79.5,75.0,30.19,West,264,0.0,0.0,86,0.00,,,0.00,meteohub,2013-07-05 12:33:00,
2013-07-05 08:38:00,79.9,75.7,30.18,West,264,0.0,0.0,87,0.00,,,0.00,meteohub,2013-07-05 12:38:00,
2013-07-05 08:43:00,80.1,75.6,30.19,West,271,0.0,0.0,86,0.00,,,0.00,meteohub,2013-07-05 12:43:00,
2013-07-05 08:48:00,80.4,75.6,30.19,West,275,0.0,0.0,85,0.00,,,0.00,meteohub,2013-07-05 12:48:00,
2013-07-05 08:53:00,80.6,75.7,30.19,West,262,0.0,0.0,85,0.00,,,0.00,meteohub,2013-07-05 12:53:00,
2013-07-05 08:59:00,81.0,75.7,30.18,WSW,255,0.0,1.0,84,0.00,,,0.00,meteohub,2013-07-05 12:59:00,
2013-07-05 09:04:00,81.1,75.6,30.18,West,266,0.0,2.0,83,0.00,,,0.00,meteohub,2013-07-05 13:04:00,
2013-07-05 09:09:00,81.5,75.9,30.18,West,271,0.0,2.0,83,0.00,,,0.00,meteohub,2013-07-05 13:09:00,
2013-07-05 09:14:00,82.0,75.9,30.18,West,274,0.0,2.0,82,0.00,,,0.00,meteohub,2013-07-05 13:14:00,
2013-07-05 09:19:00,82.2,75.4,30.17,West,264,0.0,2.0,80,0.00,,,0.00,meteohub,2013-07-05 13:19:00,
2013-07-05 09:24:00,82.4,75.6,30.17,West,267,0.0,3.0,80,0.00,,,0.00,meteohub,2013-07-05 13:24:00,
2013-07-05 09:30:00,82.8,75.9,30.17,West,267,0.0,3.0,80,0.00,,,0.00,meteohub,2013-07-05 13:30:00,
2013-07-05 09:35:00,83.5,76.6,30.17,West,266,0.0,3.0,80,0.00,,,0.00,meteohub,2013-07-05 13:35:00,
2013-07-05 09:40:00,83.7,76.1,30.17,NE,49,1.0,2.0,78,0.00,,,0.00,meteohub,2013-07-05 13:40:00,
2013-07-05 09:46:00,83.8,76.3,30.17,West,262,0.0,2.0,78,0.00,,,0.00,meteohub,2013-07-05 13:46:00,
2013-07-05 09:51:00,84.6,76.5,30.17,West,267,2.0,2.0,77,0.00,,,0.00,meteohub,2013-07-05 13:51:00,
2013-07-05 09:57:00,84.9,76.5,30.17,West,264,1.0,2.0,76,0.00,,,0.00,meteohub,2013-07-05 13:57:00,
2013-07-05 10:02:00,84.7,76.6,30.17,WSW,257,1.0,2.0,77,0.00,,,0.00,meteohub,2013-07-05 14:02:00,
2013-07-05 10:07:00,84.9,76.8,30.17,West,259,1.0,2.0,77,0.00,,,0.00,meteohub,2013-07-05 14:07:00,
2013-07-05 10:12:00,85.3,76.5,30.17,WSW,250,0.0,2.0,75,0.00,,,0.00,meteohub,2013-07-05 14:12:00,
2013-07-05 10:17:00,85.6,76.5,30.17,WSW,257,4.0,4.0,74,0.00,,,0.00,meteohub,2013-07-05 14:17:00,
2013-07-05 10:22:00,86.2,76.5,30.17,WSW,258,1.0,5.0,73,0.00,,,0.00,meteohub,2013-07-05 14:22:00,
2013-07-05 10:27:00,86.4,76.3,30.17,West,260,0.0,5.0,72,0.00,,,0.00,meteohub,2013-07-05 14:27:00,
2013-07-05 10:32:00,86.4,77.0,30.17,WSW,255,2.0,5.0,74,0.00,,,0.00,meteohub,2013-07-05 14:32:00,
2013-07-05 10:37:00,87.3,77.2,30.16,West,260,2.0,2.0,72,0.00,,,0.00,meteohub,2013-07-05 14:37:00,
2013-07-05 10:42:00,87.3,76.6,30.17,West,260,0.0,3.0,71,0.00,,,0.00,meteohub,2013-07-05 14:42:00,
2013-07-05 10:47:00,87.1,77.4,30.17,WSW,258,0.0,3.0,73,0.00,,,0.00,meteohub,2013-07-05 14:47:00,
2013-07-05 10:52:00,87.6,77.5,30.16,WSW,252,2.0,7.0,72,0.00,,,0.00,meteohub,2013-07-05 14:52:00,
2013-07-05 10:57:00,87.8,76.3,30.16,West,260,2.0,7.0,69,0.00,,,0.00,meteohub,2013-07-05 14:57:00,
2013-07-05 11:02:00,87.8,76.8,30.16,WSW,256,0.0,5.0,70,0.00,,,0.00,meteohub,2013-07-05 15:02:00,
2013-07-05 11:07:00,87.6,77.0,30.16,West,259,2.0,5.0,71,0.00,,,0.00,meteohub,2013-07-05 15:07:00,
2013-07-05 11:12:00,87.4,76.8,30.16,West,272,1.0,4.0,71,0.00,,,0.00,meteohub,2013-07-05 15:12:00,
2013-07-05 11:17:00,88.2,77.2,30.16,WSW,252,1.0,6.0,70,0.00,,,0.00,meteohub,2013-07-05 15:17:00,
2013-07-05 11:22:00,88.3,77.4,30.16,West,266,2.0,6.0,70,0.00,,,0.00,meteohub,2013-07-05 15:22:00,
2013-07-05 11:27:00,88.3,77.4,30.16,West,274,0.0,5.0,70,0.00,,,0.00,meteohub,2013-07-05 15:27:00,
2013-07-05 11:32:00,88.5,77.9,30.16,WSW,240,1.0,5.0,71,0.00,,,0.00,meteohub,2013-07-05 15:32:00,
2013-07-05 11:37:00,88.5,77.5,30.15,West,260,1.0,3.0,70,0.00,,,0.00,meteohub,2013-07-05 15:37:00,
2013-07-05 11:42:00,88.5,77.5,30.15,West,272,2.0,2.0,70,0.00,,,0.00,meteohub,2013-07-05 15:42:00,
2013-07-05 11:47:00,88.5,75.7,30.15,West,270,3.0,5.0,66,0.00,,,0.00,meteohub,2013-07-05 15:47:00,
2013-07-05 11:49:00,88.7,76.8,30.15,West,262,3.0,5.0,68,0.00,,,0.00,meteohub,2013-07-05 15:49:00,
2013-07-05 11:54:00,89.2,76.5,30.15,WSW,244,0.0,6.0,66,0.00,,,0.00,meteohub,2013-07-05 15:54:00,
2013-07-05 11:59:00,89.8,77.4,30.15,SW,233,3.0,6.0,67,0.00,,,0.00,meteohub,2013-07-05 15:59:00,
2013-07-05 12:04:00,90.1,76.3,30.15,WSW,255,0.0,6.0,64,0.00,,,0.00,meteohub,2013-07-05 16:04:00,
2013-07-05 12:09:00,90.3,75.0,30.14,WSW,243,3.0,5.0,61,0.00,,,0.00,meteohub,2013-07-05 16:09:00,
2013-07-05 12:14:00,90.1,76.8,30.14,West,263,1.0,5.0,65,0.00,,,0.00,meteohub,2013-07-05 16:14:00,
2013-07-05 12:19:00,89.8,76.5,30.14,West,274,0.0,5.0,65,0.00,,,0.00,meteohub,2013-07-05 16:19:00,
2013-07-05 12:25:00,89.8,77.4,30.14,WSW,254,0.0,5.0,67,0.00,,,0.00,meteohub,2013-07-05 16:25:00,
2013-07-05 12:30:00,89.8,75.6,30.14,WSW,256,2.0,4.0,63,0.00,,,0.00,meteohub,2013-07-05 16:30:00,
2013-07-05 12:35:00,89.6,74.8,30.14,WSW,243,5.0,6.0,62,0.00,,,0.00,meteohub,2013-07-05 16:35:00,
2013-07-05 12:40:00,89.8,76.5,30.15,WSW,257,0.0,9.0,65,0.00,,,0.00,meteohub,2013-07-05 16:40:00,
2013-07-05 12:45:00,90.3,77.9,30.14,WNW,295,0.0,9.0,67,0.00,,,0.00,meteohub,2013-07-05 16:45:00,
2013-07-05 12:50:00,90.5,76.1,30.14,West,278,0.0,9.0,63,0.00,,,0.00,meteohub,2013-07-05 16:50:00,
2013-07-05 12:55:00,90.3,76.5,30.14,WSW,249,0.0,9.0,64,0.00,,,0.00,meteohub,2013-07-05 16:55:00,
2013-07-05 13:00:00,90.3,75.9,30.14,WSW,243,1.0,5.0,63,0.00,,,0.00,meteohub,2013-07-05 17:00:00,
2013-07-05 13:07:00,90.7,75.9,30.14,WSW,237,5.0,5.0,62,0.00,,,0.00,meteohub,2013-07-05 17:07:00,
2013-07-05 13:12:00,91.0,75.7,30.14,WSW,246,7.0,7.0,61,0.00,,,0.00,meteohub,2013-07-05 17:12:00,
2013-07-05 13:17:00,91.0,75.2,30.14,WNW,282,0.0,9.0,60,0.00,,,0.00,meteohub,2013-07-05 17:17:00,
2013-07-05 13:22:00,90.9,76.1,30.13,WSW,248,4.0,9.0,62,0.00,,,0.00,meteohub,2013-07-05 17:22:00,
2013-07-05 13:23:00,90.9,76.1,30.13,WSW,253,4.0,9.0,62,0.00,,,0.00,meteohub,2013-07-05 17:23:00,
2013-07-05 13:28:00,91.2,76.3,30.13,West,276,0.0,9.0,62,0.00,,,0.00,meteohub,2013-07-05 17:28:00,
2013-07-05 13:33:00,91.0,75.7,30.13,West,270,0.0,7.0,61,0.00,,,0.00,meteohub,2013-07-05 17:33:00,
2013-07-05 13:38:00,90.7,76.8,30.13,WSW,242,2.0,6.0,64,0.00,,,0.00,meteohub,2013-07-05 17:38:00,
2013-07-05 13:43:00,90.9,75.0,30.13,SW,218,2.0,5.0,60,0.00,,,0.00,meteohub,2013-07-05 17:43:00,
2013-07-05 13:48:00,91.2,75.4,30.13,West,264,0.0,7.0,60,0.00,,,0.00,meteohub,2013-07-05 17:48:00,
2013-07-05 13:53:00,90.9,75.0,30.13,West,259,1.0,7.0,60,0.00,,,0.00,meteohub,2013-07-05 17:53:00,
2013-07-05 13:58:00,90.9,74.5,30.13,WSW,257,1.0,7.0,59,0.00,,,0.00,meteohub,2013-07-05 17:58:00,
2013-07-05 14:03:00,90.9,75.0,30.13,SW,231,1.0,5.0,60,0.00,,,0.00,meteohub,2013-07-05 18:03:00,
2013-07-05 14:08:00,91.2,75.9,30.13,WSW,246,2.0,5.0,61,0.00,,,0.00,meteohub,2013-07-05 18:08:00,
2013-07-05 14:13:00,91.0,75.2,30.13,WSW,254,0.0,5.0,60,0.00,,,0.00,meteohub,2013-07-05 18:13:00,
2013-07-05 14:18:00,91.2,74.3,30.13,West,267,1.0,5.0,58,0.00,,,0.00,meteohub,2013-07-05 18:18:00,
2013-07-05 14:23:00,90.9,74.1,30.12,WSW,256,1.0,6.0,58,0.00,,,0.00,meteohub,2013-07-05 18:23:00,
2013-07-05 14:28:00,91.0,75.2,30.12,West,262,0.0,6.0,60,0.00,,,0.00,meteohub,2013-07-05 18:28:00,
2013-07-05 14:33:00,91.0,75.2,30.12,West,265,0.0,5.0,60,0.00,,,0.00,meteohub,2013-07-05 18:33:00,
2013-07-05 14:38:00,91.0,75.2,30.12,West,259,1.0,5.0,60,0.00,,,0.00,meteohub,2013-07-05 18:38:00,
2013-07-05 14:43:00,91.4,76.1,30.12,WSW,243,1.0,3.0,61,0.00,,,0.00,meteohub,2013-07-05 18:43:00,
2013-07-05 14:48:00,91.0,74.7,30.12,WSW,252,2.0,6.0,59,0.00,,,0.00,meteohub,2013-07-05 18:48:00,
2013-07-05 14:53:00,91.0,73.8,30.12,WSW,246,2.0,6.0,57,0.00,,,0.00,meteohub,2013-07-05 18:53:00,
2013-07-05 14:58:00,91.4,75.0,30.11,WSW,249,0.0,7.0,59,0.00,,,0.00,meteohub,2013-07-05 18:58:00,
2013-07-05 15:03:00,91.0,73.8,30.11,WSW,242,0.0,7.0,57,0.00,,,0.00,meteohub,2013-07-05 19:03:00,
2013-07-05 15:08:00,91.0,74.1,30.11,WSW,253,2.0,7.0,58,0.00,,,0.00,meteohub,2013-07-05 19:08:00,
2013-07-05 15:13:00,91.4,73.4,30.11,SW,228,2.0,6.0,56,0.00,,,0.00,meteohub,2013-07-05 19:13:00,
2013-07-05 15:18:00,90.7,75.9,30.11,SW,229,2.0,11.0,62,0.00,,,0.00,meteohub,2013-07-05 19:18:00,
2013-07-05 15:23:00,89.4,76.1,30.11,SW,224,5.0,11.0,65,0.00,,,0.00,meteohub,2013-07-05 19:23:00,
2013-07-05 15:28:00,89.1,76.3,30.11,WSW,249,2.0,11.0,66,0.00,,,0.00,meteohub,2013-07-05 19:28:00,
2013-07-05 15:33:00,88.3,75.9,30.11,West,259,2.0,9.0,67,0.00,,,0.00,meteohub,2013-07-05 19:33:00,
2013-07-05 15:38:00,88.0,76.1,30.10,WSW,250,3.0,9.0,68,0.00,,,0.00,meteohub,2013-07-05 19:38:00,
2013-07-05 15:43:00,87.4,75.9,30.10,SW,236,6.0,9.0,69,0.00,,,0.00,meteohub,2013-07-05 19:43:00,
2013-07-05 15:48:00,87.3,76.3,30.11,SE,134,0.0,11.0,70,0.00,,,0.00,meteohub,2013-07-05 19:48:00,
2013-07-05 15:53:00,87.1,76.1,30.10,East,101,2.0,11.0,70,0.00,,,0.00,meteohub,2013-07-05 19:53:00,
2013-07-05 15:58:00,87.1,76.5,30.10,WSW,250,1.0,11.0,71,0.00,,,0.00,meteohub,2013-07-05 19:58:00,
2013-07-05 16:03:00,86.9,75.9,30.09,SSW,195,2.0,6.0,70,0.00,,,0.00,meteohub,2013-07-05 20:03:00,
2013-07-05 16:08:00,86.9,75.9,30.09,West,260,2.0,7.0,70,0.00,,,0.00,meteohub,2013-07-05 20:08:00,
2013-07-05 16:13:00,87.1,76.1,30.09,SSW,193,1.0,7.0,70,0.00,,,0.00,meteohub,2013-07-05 20:13:00,
2013-07-05 16:18:00,86.9,76.3,30.09,WSW,240,3.0,10.0,71,0.00,,,0.00,meteohub,2013-07-05 20:18:00,
2013-07-05 16:23:00,87.1,76.5,30.09,WSW,253,6.0,10.0,71,0.00,,,0.00,meteohub,2013-07-05 20:23:00,
2013-07-05 16:28:00,87.1,76.1,30.09,SW,229,2.0,10.0,70,0.00,,,0.00,meteohub,2013-07-05 20:28:00,
2013-07-05 16:33:00,87.3,76.3,30.09,WSW,251,2.0,9.0,70,0.00,,,0.00,meteohub,2013-07-05 20:33:00,
2013-07-05 16:38:00,87.1,76.1,30.09,West,275,0.0,9.0,70,0.00,,,0.00,meteohub,2013-07-05 20:38:00,
2013-07-05 16:43:00,86.9,76.8,30.09,WSW,250,1.0,8.0,72,0.00,,,0.00,meteohub,2013-07-05 20:43:00,
2013-07-05 16:48:00,86.7,76.1,30.09,WSW,247,1.0,8.0,71,0.00,,,0.00,meteohub,2013-07-05 20:48:00,
2013-07-05 16:53:00,86.7,76.1,30.09,WSW,254,5.0,8.0,71,0.00,,,0.00,meteohub,2013-07-05 20:53:00,
2013-07-05 16:58:00,86.7,76.1,30.08,West,259,3.0,7.0,71,0.00,,,0.00,meteohub,2013-07-05 20:58:00,
2013-07-05 17:03:00,86.7,75.7,30.09,WSW,248,2.0,8.0,70,0.00,,,0.00,meteohub,2013-07-05 21:03:00,
2013-07-05 17:08:00,86.4,75.9,30.08,South,191,1.0,8.0,71,0.00,,,0.00,meteohub,2013-07-05 21:08:00,
2013-07-05 17:13:00,86.2,75.7,30.08,SW,229,2.0,8.0,71,0.00,,,0.00,meteohub,2013-07-05 21:13:00,
2013-07-05 17:18:00,86.0,75.6,30.08,WSW,240,0.0,8.0,71,0.00,,,0.00,meteohub,2013-07-05 21:18:00,
2013-07-05 17:23:00,86.2,75.7,30.08,WSW,247,1.0,8.0,71,0.00,,,0.00,meteohub,2013-07-05 21:23:00,
2013-07-05 17:28:00,86.2,75.7,30.07,SW,233,1.0,7.0,71,0.00,,,0.00,meteohub,2013-07-05 21:28:00,
2013-07-05 17:29:00,86.2,75.7,30.07,West,264,2.0,7.0,71,0.00,,,0.00,meteohub,2013-07-05 21:29:00,
2013-07-05 17:34:00,86.2,76.1,30.07,WSW,243,0.0,7.0,72,0.00,,,0.00,meteohub,2013-07-05 21:34:00,
2013-07-05 17:39:00,86.2,76.1,30.07,WSW,245,2.0,7.0,72,0.00,,,0.00,meteohub,2013-07-05 21:39:00,
2013-07-05 17:44:00,86.2,76.1,30.07,WSW,257,1.0,5.0,72,0.00,,,0.00,meteohub,2013-07-05 21:44:00,
2013-07-05 17:49:00,86.4,76.3,30.07,North,351,0.0,4.0,72,0.00,,,0.00,meteohub,2013-07-05 21:49:00,
2013-07-05 17:54:00,86.5,75.9,30.07,WSW,251,0.0,4.0,71,0.00,,,0.00,meteohub,2013-07-05 21:54:00,
2013-07-05 17:59:00,86.4,75.9,30.07,SSW,212,0.0,4.0,71,0.00,,,0.00,meteohub,2013-07-05 21:59:00,
2013-07-05 18:04:00,86.2,75.7,30.06,WSW,250,0.0,4.0,71,0.00,,,0.00,meteohub,2013-07-05 22:04:00,
2013-07-05 18:09:00,86.0,75.6,30.06,WSW,256,0.0,3.0,71,0.00,,,0.00,meteohub,2013-07-05 22:09:00,
2013-07-05 18:14:00,86.0,75.6,30.06,WSW,243,1.0,4.0,71,0.00,,,0.00,meteohub,2013-07-05 22:14:00,
2013-07-05 18:19:00,85.8,75.4,30.06,SSW,209,1.0,4.0,71,0.00,,,0.00,meteohub,2013-07-05 22:19:00,
2013-07-05 18:24:00,85.8,75.7,30.06,WSW,257,1.0,4.0,72,0.00,,,0.00,meteohub,2013-07-05 22:24:00,
2013-07-05 18:29:00,86.0,75.9,30.06,WSW,239,0.0,4.0,72,0.00,,,0.00,meteohub,2013-07-05 22:29:00,
2013-07-05 18:35:00,86.0,75.9,30.06,WNW,286,1.0,3.0,72,0.00,,,0.00,meteohub,2013-07-05 22:35:00,
2013-07-05 18:40:00,85.8,75.7,30.06,WSW,253,0.0,3.0,72,0.00,,,0.00,meteohub,2013-07-05 22:40:00,
2013-07-05 18:45:00,85.8,75.7,30.06,WSW,255,0.0,2.0,72,0.00,,,0.00,meteohub,2013-07-05 22:45:00,
2013-07-05 18:50:00,85.8,75.7,30.06,WSW,256,0.0,2.0,72,0.00,,,0.00,meteohub,2013-07-05 22:50:00,
2013-07-05 18:55:00,85.8,75.7,30.06,WSW,256,0.0,2.0,72,0.00,,,0.00,meteohub,2013-07-05 22:55:00,
2013-07-05 19:00:00,85.5,75.7,30.06,WSW,257,0.0,2.0,73,0.00,,,0.00,meteohub,2013-07-05 23:00:00,
2013-07-05 19:05:00,85.3,76.1,30.06,WSW,256,0.0,2.0,74,0.00,,,0.00,meteohub,2013-07-05 23:05:00,
2013-07-05 19:10:00,84.9,76.1,30.06,WSW,256,0.0,0.0,75,0.00,,,0.00,meteohub,2013-07-05 23:10:00,
2013-07-05 19:15:00,84.7,76.3,30.06,WSW,256,0.0,0.0,76,0.00,,,0.00,meteohub,2013-07-05 23:15:00,
2013-07-05 19:20:00,84.6,76.1,30.06,WSW,256,0.0,0.0,76,0.00,,,0.00,meteohub,2013-07-05 23:20:00,
2013-07-05 19:25:00,84.2,76.6,30.06,WSW,256,0.0,0.0,78,0.00,,,0.00,meteohub,2013-07-05 23:25:00,
2013-07-05 19:30:00,83.8,76.6,30.06,WSW,256,0.0,0.0,79,0.00,,,0.00,meteohub,2013-07-05 23:30:00,
2013-07-05 19:35:00,83.7,76.5,30.06,WSW,256,0.0,0.0,79,0.00,,,0.00,meteohub,2013-07-05 23:35:00,
2013-07-05 19:40:00,83.7,76.1,30.06,SE,133,0.0,1.0,78,0.00,,,0.00,meteohub,2013-07-05 23:40:00,
2013-07-05 19:45:00,83.7,76.1,30.06,WSW,249,0.0,1.0,78,0.00,,,0.00,meteohub,2013-07-05 23:45:00,
2013-07-05 19:50:00,83.5,75.0,30.06,WSW,249,0.0,1.0,76,0.00,,,0.00,meteohub,2013-07-05 23:50:00,
2013-07-05 19:55:00,83.5,73.9,30.06,WSW,249,0.0,0.0,73,0.00,,,0.00,meteohub,2013-07-05 23:55:00,
2013-07-05 20:00:00,83.5,73.6,30.06,WSW,249,0.0,0.0,72,0.00,,,0.00,meteohub,2013-07-06 00:00:00,
2013-07-05 20:05:00,83.1,73.6,30.06,WSW,249,0.0,0.0,73,0.00,,,0.00,meteohub,2013-07-06 00:05:00,
2013-07-05 20:10:00,82.9,73.0,30.06,WSW,249,0.0,0.0,72,0.00,,,0.00,meteohub,2013-07-06 00:10:00,
2013-07-05 20:15:00,82.8,72.9,30.06,WSW,249,0.0,0.0,72,0.00,,,0.00,meteohub,2013-07-06 00:15:00,
2013-07-05 20:20:00,82.6,72.7,30.06,WSW,249,0.0,0.0,72,0.00,,,0.00,meteohub,2013-07-06 00:20:00,
2013-07-05 20:25:00,82.2,72.3,30.06,WSW,249,0.0,0.0,72,0.00,,,0.00,meteohub,2013-07-06 00:25:00,
2013-07-05 20:30:00,82.2,72.7,30.06,WSW,249,0.0,0.0,73,0.00,,,0.00,meteohub,2013-07-06 00:30:00,
2013-07-05 20:35:00,82.0,72.5,30.06,WSW,249,0.0,0.0,73,0.00,,,0.00,meteohub,2013-07-06 00:35:00,
2013-07-05 20:40:00,81.9,72.7,30.06,WSW,249,0.0,0.0,74,0.00,,,0.00,meteohub,2013-07-06 00:40:00,
2013-07-05 20:45:00,81.7,72.5,30.06,WSW,249,0.0,0.0,74,0.00,,,0.00,meteohub,2013-07-06 00:45:00,
2013-07-05 20:50:00,81.3,72.3,30.06,WSW,249,0.0,0.0,74,0.00,,,0.00,meteohub,2013-07-06 00:50:00,
2013-07-05 20:55:00,81.1,72.5,30.06,WSW,249,0.0,0.0,75,0.00,,,0.00,meteohub,2013-07-06 00:55:00,
2013-07-05 21:00:00,81.0,72.3,30.06,WSW,249,0.0,0.0,75,0.00,,,0.00,meteohub,2013-07-06 01:00:00,
2013-07-05 21:05:00,80.8,72.5,30.06,WSW,249,0.0,0.0,76,0.00,,,0.00,meteohub,2013-07-06 01:05:00,
2013-07-05 21:10:00,80.8,73.2,30.06,WSW,249,0.0,0.0,78,0.00,,,0.00,meteohub,2013-07-06 01:10:00,
2013-07-05 21:15:00,81.0,72.7,30.06,WSW,249,0.0,0.0,76,0.00,,,0.00,meteohub,2013-07-06 01:15:00,
2013-07-05 21:20:00,81.1,72.9,30.07,WSW,249,0.0,0.0,76,0.00,,,0.00,meteohub,2013-07-06 01:20:00,
2013-07-05 21:25:00,81.0,72.7,30.07,WSW,249,0.0,0.0,76,0.00,,,0.00,meteohub,2013-07-06 01:25:00,
2013-07-05 21:26:00,81.0,72.7,30.07,WSW,249,0.0,0.0,76,0.00,,,0.00,meteohub,2013-07-06 01:26:00,
2013-07-05 21:31:00,81.0,72.7,30.08,WSW,249,0.0,0.0,76,0.00,,,0.00,meteohub,2013-07-06 01:31:00,
2013-07-05 21:36:00,80.8,72.1,30.08,WSW,249,0.0,0.0,75,0.00,,,0.00,meteohub,2013-07-06 01:36:00,
2013-07-05 21:41:00,80.8,72.1,30.08,WSW,249,0.0,0.0,75,0.00,,,0.00,meteohub,2013-07-06 01:41:00,
2013-07-05 21:46:00,80.8,72.5,30.09,WSW,249,0.0,0.0,76,0.00,,,0.00,meteohub,2013-07-06 01:46:00,
2013-07-05 21:51:00,80.8,72.5,30.09,WSW,249,0.0,0.0,76,0.00,,,0.00,meteohub,2013-07-06 01:51:00,
2013-07-05 21:56:00,80.4,72.1,30.09,WSW,249,0.0,0.0,76,0.00,,,0.00,meteohub,2013-07-06 01:56:00,
2013-07-05 22:01:00,80.4,72.1,30.09,WSW,249,0.0,0.0,76,0.00,,,0.00,meteohub,2013-07-06 02:01:00,
2013-07-05 22:06:00,80.6,72.0,30.09,WSW,249,0.0,0.0,75,0.00,,,0.00,meteohub,2013-07-06 02:06:00,
2013-07-05 22:11:00,80.6,72.0,30.09,WSW,249,0.0,0.0,75,0.00,,,0.00,meteohub,2013-07-06 02:11:00,
2013-07-05 22:16:00,80.6,72.0,30.09,WSW,249,0.0,0.0,75,0.00,,,0.00,meteohub,2013-07-06 02:16:00,
2013-07-05 22:21:00,80.6,72.0,30.09,WSW,249,0.0,0.0,75,0.00,,,0.00,meteohub,2013-07-06 02:21:00,
2013-07-05 22:26:00,80.4,72.1,30.09,WSW,249,0.0,0.0,76,0.00,,,0.00,meteohub,2013-07-06 02:26:00,
2013-07-05 22:31:00,80.4,72.1,30.09,WSW,249,0.0,0.0,76,0.00,,,0.00,meteohub,2013-07-06 02:31:00,
2013-07-05 22:36:00,80.2,72.0,30.09,WSW,249,0.0,0.0,76,0.00,,,0.00,meteohub,2013-07-06 02:36:00,
2013-07-05 22:41:00,80.2,72.3,30.09,WSW,249,0.0,0.0,77,0.00,,,0.00,meteohub,2013-07-06 02:41:00,
2013-07-05 22:46:00,80.1,72.1,30.09,WSW,249,0.0,0.0,77,0.00,,,0.00,meteohub,2013-07-06 02:46:00,
2013-07-05 22:51:00,79.9,72.0,30.09,WSW,249,0.0,0.0,77,0.00,,,0.00,meteohub,2013-07-06 02:51:00,
2013-07-05 22:56:00,79.9,72.3,30.10,WSW,249,0.0,0.0,78,0.00,,,0.00,meteohub,2013-07-06 02:56:00,
2013-07-05 23:01:00,79.7,72.1,30.10,WSW,249,0.0,0.0,78,0.00,,,0.00,meteohub,2013-07-06 03:01:00,
2013-07-05 23:02:00,79.5,72.1,30.10,WSW,249,0.0,0.0,78,0.00,,,0.00,meteohub,2013-07-06 03:02:00,
2013-07-05 23:07:00,79.5,72.5,30.10,WSW,249,0.0,0.0,79,0.00,,,0.00,meteohub,2013-07-06 03:07:00,
2013-07-05 23:12:00,79.3,72.3,30.10,WSW,249,0.0,0.0,79,0.00,,,0.00,meteohub,2013-07-06 03:12:00,
2013-07-05 23:17:00,79.3,72.7,30.10,WSW,249,0.0,0.0,80,0.00,,,0.00,meteohub,2013-07-06 03:17:00,
2013-07-05 23:22:00,79.3,72.7,30.10,WSW,249,0.0,0.0,80,0.00,,,0.00,meteohub,2013-07-06 03:22:00,
2013-07-05 23:27:00,79.3,72.7,30.10,WSW,249,0.0,0.0,80,0.00,,,0.00,meteohub,2013-07-06 03:27:00,
2013-07-05 23:32:00,79.5,73.2,30.10,WSW,249,0.0,0.0,81,0.00,,,0.00,meteohub,2013-07-06 03:32:00,
2013-07-05 23:37:00,79.9,73.2,30.11,WSW,249,0.0,0.0,80,0.00,,,0.00,meteohub,2013-07-06 03:37:00,
2013-07-05 23:42:00,80.1,73.4,30.11,WSW,249,0.0,0.0,80,0.00,,,0.00,meteohub,2013-07-06 03:42:00,
2013-07-05 23:47:00,80.4,73.2,30.10,SW,236,0.0,0.0,79,0.00,,,0.00,meteohub,2013-07-06 03:47:00,
2013-07-05 23:52:00,80.4,73.2,30.11,WSW,242,1.0,2.0,79,0.00,,,0.00,meteohub,2013-07-06 03:52:00,
2013-07-05 23:57:00,80.8,73.6,30.10,WSW,240,0.0,2.0,79,0.00,,,0.00,meteohub,2013-07-06 03:57:00,